星链-4767 (STARLINK-4767 )

导读

STARLINK-4767是美国太空探索技术公司(SpaceX)星链互联网卫星星座中的一员,于2022年9月19日发射入轨。星链项目旨在通过近地轨道卫星群提供全球高速互联网接入服务,该卫星承担着拓展星座覆盖范围、提升全球网络服务能力的任务,服务于偏远地区网络覆盖、海事航空互联等多个应用场景。

基本信息
目录编号:
53850
目录名称:
STARLINK-4767
国际标识:
2022-114AJ
轨道中心:
EARTH
卫星名称:
星链-4767
卫星全名:
星链-4767 (STARLINK-4767 )
卫星状态:
在轨 (已飞行1454 天)
发射日期:
2022-09-19 UTC
国别 :
美国 (US)
星等 :
--
该卫星已列入 空间交会检测服务 Space Conjunction Data Service (SCDS) ,当前飞行风险评估等级: 无高风险
轨道信息
数据来源 国际轨道数据 AOE轨道数据
星历时间 2026-09-12T12:47:00+0800
6小时前
查看轨道信息
2026-09-06T00:00:00+0800
6天前
查看轨道信息
半长轴 6917.909km 6917.9km
偏心率 0.0001575 0.0001352
轨道倾角 53.160° 53.161°
近地点辐角 85.444° 63.271°
升交点赤经 175.851° 205.216°
平近点角 274.673° 73.434°
近地点 538.682km 538.827km
远地点 540.862km 540.699km
周期 95.438分钟 95.438分钟
每日圈数 15.088307 15.088336
详细信息
固有亮度:
5
最大亮度:
2.5
卫星平台:
Starlink v1.5
覆盖范围:
全球
运营商:
太空探索技术公司
运营商所在国:
美国
制造商(研发单位):
太空探索技术公司
制造商所在国:
美国
使用方式:
暂无
卫星简介
星链(Starlink)计划是由太空探索技术公司(SpaceX)提出的一个巨型低轨卫星互联网星座项目,计划在2019年至2024年间在太空搭建由约1.2万颗卫星组成的“星链”网络,其中1584颗将部署在地球上空550千米处的近地轨道,并从2020年开始工作。该卫星仍在工作。
2D轨道图
3D轨道图
轨道高度分析图
轨道倾角分析图
轨道综合分析图
查看轨道综合分析图
与全量物体交会距离演化趋势
与全量物体交会风险概率演化趋势